Location: Unspecified
(0.0000°N, 0.0000°E)
Time: 09:44:12
(UTC+00:00)

A-11 Canister half - Visible Passes

Search period start: 26 April 2015 00:00
Search period end: 06 May 2015 00:00
Orbit: 1527 x 1682 km, 47.3° (Epoch: 25 April)

Date Brightness Start Highest point End Pass type
(mag) Time Alt. Az. Time Alt. Az. Time Alt. Az.
26 Apr 10.5 03:31:33 14° S 03:37:01 24° SE 03:44:28 10° E visible
26 Apr 9.1 05:32:44 10° SW 05:42:09 70° NW 05:51:51 10° NNE visible
26 Apr 10.5 18:26:02 10° WNW 18:34:40 32° SW 18:42:49 10° S visible
27 Apr 10.6 03:11:56 18° SSE 03:15:25 22° SE 03:22:33 10° E visible
27 Apr 9.1 05:11:10 10° SW 05:20:36 74° NW 05:30:19 10° NNE visible
28 Apr 10.6 02:52:19 19° SSE 02:53:48 20° SE 03:00:35 10° E visible
28 Apr 9.0 04:50:41 14° SW 04:59:03 79° NW 05:08:47 10° NE visible
29 Apr 10.7 02:32:40 19° SE 02:32:40 19° SE 02:38:36 10° E visible
29 Apr 8.9 04:31:02 24° SW 04:37:31 84° NW 04:47:14 10° NE visible
30 Apr 10.9 02:12:59 16° ESE 02:12:59 16° ESE 02:16:32 10° E visible
30 Apr 8.9 04:11:20 36° SW 04:15:58 89° NW 04:25:40 10° NE visible
01 May 11.1 01:53:14 12° ESE 01:53:14 12° ESE 01:54:25 10° E visible
01 May 8.9 03:51:35 52° SSW 03:54:26 85° SE 04:04:05 10° NE visible
02 May 8.8 03:31:48 71° S 03:32:54 80° SE 03:42:31 10° NE visible
02 May 10.3 05:31:31 10° W 05:38:17 20° NW 05:44:41 10° N visible
03 May 9.0 03:11:56 73° E 03:11:56 73° E 03:20:56 10° NE visible
03 May 10.2 05:10:17 12° W 05:16:40 22° NW 05:23:25 10° N visible
04 May 9.4 02:52:01 55° ENE 02:52:01 55° ENE 02:59:19 10° NE visible
04 May 10.1 04:50:21 17° W 04:55:04 24° NW 05:02:06 10° N visible
05 May 9.9 02:32:02 40° ENE 02:32:02 40° ENE 02:37:43 10° NE visible
05 May 10.0 04:30:22 22° WNW 04:33:27 26° NW 04:40:48 10° N visible
